Simultaneous Nadir Overpasses (SNOs) Predictions

Prediction of SNOs between GOES-15 and NOAA-20 Satellite Orbit:

Table of predicted SNOs for the next 14.0 days since TLE Epoch: 5/28/2022
Index Date Time (GOES-15) GOES-15 Lat,Lon NOAA-20 Lat,Lon Distance(km) Time Diff (sec)
1 05/28/2022 21:52:59 -0.05,-127.93 0.26,-126.60 151.45 80
2 05/30/2022 10:12:06 0.03,-127.98 0.90,-131.87 443.99 80
3 05/31/2022 09:56:02 0.04,-128.01 -0.14,-127.35 75.90 80
4 06/02/2022 21:56:33 -0.03,-128.07 -0.05,-128.12 5.55 80
5 06/05/2022 09:59:36 0.02,-128.15 0.17,-128.87 81.89 80
6 06/06/2022 09:43:30 0.03,-128.17 -0.82,-124.33 437.50 80
7 06/07/2022 22:02:46 -0.01,-128.20 -0.35,-129.64 164.52 80
8 06/08/2022 21:46:42 -0.02,-128.22 0.70,-125.11 354.89 80
9 06/10/2022 10:05:49 -0.01,-128.26 0.46,-130.39 241.80 80
